Glens Falls, NY

12:07 PM EDT on October 19, 2019 (GMT -0400)
Bennett Memorial

Weather History for KGFL - August, 2019

Change the Weather History Date:

Friday, August 30, 2019

  Actual Average Record
Temperature  
Mean Temperature 66 °F 64 °F  
Max Temperature 81 °F 76 °F 95 °F (1973)
Min Temperature 50 °F 52 °F 37 °F (1982)
Degree Days  
Heating Degree Days 0 3  
Month to date heating degree days 24 42  
Since 1 June heating degree days 94 153  
Since 1 July heating degree days 24 63  
Cooling Degree Days 1 2  
Month to date cooling degree days 99 102  
Year to date cooling degree days 395 322  
Since 1 June cooling degree days 386 310  
Growing Degree Days 15 (Base 50)    
Moisture  
Dew Point 52 °F    
Average Humidity 68    
Maximum Humidity 100    
Minimum Humidity 36    
Precipitation  
Precipitation 0.00 in 0.10 in 0.71 in (1975)
Month to date precipitation 2.85 3.58  
Year to date precipitation 28.79 25.71  
Sea Level Pressure  
Sea Level Pressure 29.96 in    
Wind  
Wind Speed 5 mph (SSW)    
Max Wind Speed 15 mph    
Max Gust Speed 23 mph    
Visibility 7 miles    
Events Fog    
T = Trace of Precipitation, MM = Missing Value Source: NWS Daily Summary

Daily Weather History Graph

Daily Weather History Graph

Search for Another Location

Airport or City:

Astronomy

Aug. 30, 2019 Rise Set
Actual Time 6:16 AM EDT 7:33 PM EDT
Civil Twilight 5:46 AM EDT 8:02 PM EDT
Nautical Twilight 5:10 AM EDT 8:38 PM EDT
Astronomical Twilight 4:33 AM EDT 9:15 PM EDT
Moon 6:11 AM EDT (8/30) 8:08 PM EDT (8/30)
Length of Visible Light 14h 16m
Length of Day
13h 17m
New Moon, 0% of the Moon is Illuminated
Aug 30
New Moon
Sep 5
First Quarter
Sep 14
Full
Sep 21
Last Quarter
Sep 28
New

Hourly Weather History & Observations

Time (EDT) Temp. Heat Index Dew Point Humidity Pressure Visibility Wind Dir Wind Speed Gust Speed Precip Events Conditions
12:01 AM 53.1 °F - 52.0 °F 96% 29.94 in 1.8 mi Calm Calm - N/A   Clear
12:37 AM 54.0 °F - 53.1 °F 97% 29.95 in 1.5 mi Calm Calm - N/A   Clear
12:49 AM 53.6 °F - 51.8 °F 94% 29.95 in 3.0 mi Calm Calm - N/A   Clear
12:53 AM 53.1 °F - 51.1 °F 93% 29.95 in 7.0 mi Calm Calm - N/A   Clear
1:14 AM 52.0 °F - 51.1 °F 97% 29.95 in 1.5 mi Calm Calm - N/A   Clear
1:24 AM 53.1 °F - 52.0 °F 96% 29.95 in 0.5 mi Calm Calm - N/A Fog Fog
1:50 AM 51.8 °F - 51.8 °F 100% 29.94 in 2.0 mi Calm Calm - N/A   Clear
1:53 AM 52.0 °F - 51.1 °F 97% 29.94 in 8.0 mi Calm Calm - N/A   Clear
2:08 AM 50.0 °F - 48.9 °F 96% 29.94 in 1.0 mi South 3.5 mph - N/A   Mist
2:15 AM 52.0 °F - 50.0 °F 93% 29.94 in 0.8 mi South 3.5 mph - N/A   Clear
2:19 AM 52.0 °F - 51.1 °F 97% 29.94 in 2.0 mi South 3.5 mph - N/A   Clear
2:26 AM 53.1 °F - 52.0 °F 96% 29.94 in 6.0 mi South 3.5 mph - N/A   Clear
2:53 AM 53.1 °F - 51.1 °F 93% 29.93 in 10.0 mi Calm Calm - N/A   Clear
3:24 AM 50.0 °F - 48.9 °F 96% 29.93 in 1.5 mi Calm Calm - N/A   Partly Cloudy
3:27 AM 51.1 °F - 48.9 °F 92% 29.93 in 0.8 mi Calm Calm - N/A   Mist
3:47 AM 51.8 °F - 50.0 °F 94% 29.93 in 1.2 mi Calm Calm - N/A   Partly Cloudy
3:51 AM 50.0 °F - 48.2 °F 94% 29.93 in 3.0 mi Calm Calm - N/A   Clear
3:53 AM 50.0 °F - 48.9 °F 96% 29.93 in 8.0 mi Calm Calm - N/A   Clear
4:53 AM 53.1 °F - 51.1 °F 93% 29.93 in 10.0 mi Calm Calm - N/A   Clear
5:53 AM 55.0 °F - 53.1 °F 93% 29.94 in 10.0 mi South 6.9 mph - N/A   Clear
6:53 AM 54.0 °F - 53.1 °F 97% 29.94 in 10.0 mi South 4.6 mph - N/A   Clear
7:53 AM 59.0 °F - 55.9 °F 90% 29.94 in 10.0 mi South 6.9 mph - N/A   Clear
8:53 AM 63.0 °F - 55.9 °F 78% 29.93 in 10.0 mi South 8.1 mph - N/A   Clear
9:53 AM 66.9 °F - 57.0 °F 70% 29.93 in 10.0 mi SSW 10.4 mph - N/A   Mostly Cloudy
10:53 AM 70.0 °F - 57.9 °F 65% 29.93 in 10.0 mi South 10.4 mph - N/A   Mostly Cloudy
11:53 AM 75.0 °F - 60.1 °F 60% 29.93 in 10.0 mi SSW 10.4 mph - N/A   Mostly Cloudy
12:53 PM 75.9 °F - 57.9 °F 54% 29.93 in 10.0 mi SW 8.1 mph - N/A   Overcast
1:53 PM 80.1 °F 79.9 °F 53.1 °F 39% 29.94 in 10.0 mi WSW 11.5 mph 20.7 mph N/A   Scattered Clouds
2:53 PM 80.1 °F 79.9 °F 53.1 °F 39% 29.93 in 10.0 mi WSW 13.8 mph 18.4 mph N/A   Partly Cloudy
3:53 PM 80.1 °F 79.9 °F 53.1 °F 39% 29.94 in 10.0 mi WSW 8.1 mph - N/A   Clear
4:53 PM 79.0 °F - 50.0 °F 36% 29.94 in 10.0 mi WSW 10.4 mph 18.4 mph N/A   Mostly Cloudy
5:53 PM 77.0 °F - 48.9 °F 37% 29.97 in 10.0 mi West 9.2 mph - N/A   Clear
6:53 PM 73.9 °F - 46.0 °F 37% 29.99 in 10.0 mi West 6.9 mph - N/A   Clear
7:53 PM 69.1 °F - 48.0 °F 47% 30.01 in 10.0 mi Calm Calm - N/A   Clear
8:53 PM 59.0 °F - 52.0 °F 78% 30.04 in 10.0 mi Calm Calm - N/A   Clear
9:53 PM 55.9 °F - 51.1 °F 84% 30.06 in 10.0 mi Calm Calm - N/A   Clear
10:53 PM 55.0 °F - 51.1 °F 86% 30.09 in 10.0 mi Calm Calm - N/A   Clear
11:53 PM 53.1 °F - 51.1 °F 93% 30.10 in 10.0 mi Calm Calm - N/A   Clear